Flag for Switzerland Weather past 2 weeks in Binningen, Basel-Land, Switzerland

45 °F

Passing clouds.

Feels Like: 42 °F
Forecast: 36 / 49 °F
Wind: 5 mph from Southwest

Location: Bale-Mulhouse

Current Time: Oct 14, 2015 at 1:10:35 AM

Latest Report: Oct 13, 2015 at 11:30 PM

Visibility: 5 mi

Pressure: 30.01 "Hg

Humidity: 81%

Dew point: 39 °F

Location of BinningenLocation

Historic Weather in Binningen — Graph


Binningen temperature yesterday

Maximum temperature yesterday: 55 °F (at 12:30 PM)
Minimum temperature yesterday: 43 °F (at 2:00 AM)
Average temperature yesterday: 48 °F

Past Weeks' High & Low Weather Summary

High72 °F (Oct 3, 4:00 PM)100% (Sep 30, 5:30 AM)30.39 "Hg (Sep 30, 5:30 AM)
Low36 °F (Sep 30, 7:30 AM)37% (Sep 29, 2:00 PM)29.71 "Hg (Oct 6, 9:00 AM)
Average54 °F79%30.05 "Hg
* Reported Sep 28 11:00 PM — Oct 13 11:30 PM, Binningen, Weather by CustomWeather, © 2015

Note: Actual official high and low records may vary slightly from our data, if they occured in-between our weather recording intervals... More about our weather records


Binningen weather history for previous 24 hours

Time TempWeatherWind HumidityBarometerVisibility
11:30 PM
Tue, Oct 13
45 °FPassing clouds.5 mph81%30.01 "Hg5 mi
11:00 PM46 °FPassing clouds.6 mph76%30.04 "Hg5 mi
10:30 PM46 °FPassing clouds.10 mph76%30.01 "Hg5 mi
10:00 PM45 °FPassing clouds.8 mph81%30.01 "Hg5 mi
9:30 PM45 °FPassing clouds.8 mph81%30.01 "Hg5 mi
9:00 PM45 °FPassing clouds.8 mph81%30.01 "Hg5 mi
8:30 PM45 °FPartly cloudy.8 mph81%30.01 "Hg5 mi
8:00 PM45 °FPartly cloudy.6 mph81%30.01 "Hg5 mi
7:30 PM46 °FPartly sunny.9 mph76%29.98 "Hg6 mi
7:00 PM48 °FBroken clouds.15 mph71%29.98 "Hg4 mi
6:30 PM48 °FBroken clouds.14 mph71%29.98 "Hg4 mi
6:00 PM48 °FBroken clouds.18 mph76%29.95 "Hg4 mi
5:30 PM50 °FBroken clouds.17 mph71%29.95 "Hg5 mi
5:00 PM54 °FPartly sunny.15 mph67%29.95 "Hg6 mi
4:30 PM55 °FBroken clouds.15 mph63%29.92 "HgN/A
4:00 PM55 °FBroken clouds.15 mph63%29.92 "HgN/A
3:30 PM55 °FScattered clouds.10 mph67%29.92 "HgN/A
3:00 PM55 °FBroken clouds.12 mph67%29.92 "HgN/A
2:30 PM54 °FPartly sunny.9 mph67%29.92 "HgN/A
2:00 PM55 °FBroken clouds.8 mph72%29.92 "HgN/A
1:30 PM55 °FBroken clouds.9 mph72%29.92 "HgN/A
1:00 PM55 °FBroken clouds.3 mph72%29.92 "Hg6 mi
12:30 PM55 °FBroken clouds.2 mph72%29.92 "Hg5 mi
12:00 PM54 °FBroken clouds.2 mph72%29.92 "Hg5 mi
11:30 AM52 °FPartly sunny.1 mph77%29.92 "Hg5 mi
11:00 AM50 °FPartly sunny.1 mph76%29.92 "Hg5 mi
10:30 AM48 °FPartly sunny.1 mph82%29.95 "Hg5 mi
10:00 AM46 °FPartly sunny.No wind87%29.95 "Hg5 mi
9:30 AM46 °FBroken clouds.1 mph87%29.95 "Hg4 mi
9:00 AM45 °FBroken clouds.No wind93%29.92 "Hg4 mi
8:30 AM45 °FPartly cloudy.1 mph93%29.92 "Hg4 mi
8:00 AM45 °FPassing clouds.1 mph93%29.92 "Hg5 mi
7:30 AM46 °FPassing clouds.3 mph87%29.92 "Hg5 mi
7:00 AM45 °FPassing clouds.2 mph93%29.92 "Hg5 mi
6:30 AM45 °FPassing clouds.2 mph93%29.92 "Hg4 mi
6:00 AM43 °FPartly cloudy.3 mph93%29.92 "Hg4 mi
5:30 AM43 °FPassing clouds.3 mph93%29.92 "Hg4 mi
5:00 AM43 °FClear.3 mph93%29.92 "Hg4 mi
4:30 AM43 °FMostly cloudy.3 mph93%29.92 "Hg4 mi
4:00 AM43 °FClear.3 mph93%29.92 "Hg4 mi
3:30 AM43 °FClear.3 mph93%29.95 "Hg4 mi
3:00 AM43 °FClear.1 mph93%29.95 "Hg5 mi
2:30 AM45 °FClear.2 mph87%29.95 "Hg6 mi
2:00 AM43 °FClear.No wind93%29.95 "Hg6 mi
1:30 AM45 °FClear.3 mph87%29.95 "Hg6 mi
1:00 AM45 °FClear.3 mph93%29.95 "Hg10 mi
Weather by CustomWeather, © 2015

See weather overviewHow to use our weather pages